Simultaneous Nadir Overpasses (SNOs) Predictions

Prediction of SNOs between GOES-15 and METOP-B Satellite Orbit:

Table of predicted SNOs for the next 14.0 days since TLE Epoch: 11/27/2021
Index Date Time (GOES-15) GOES-15 Lat,Lon METOP-B Lat,Lon Distance(km) Time Diff (sec)
1 11/27/2021 05:56:50 0.24,-128.25 0.54,-126.90 153.52 80
2 11/28/2021 18:18:22 -0.22,-128.25 0.51,-131.46 366.36 80
3 11/29/2021 17:55:02 -0.23,-128.23 -0.60,-126.47 200.37 80
4 12/01/2021 06:16:41 0.22,-128.16 -0.45,-131.05 329.72 80
5 12/02/2021 05:53:22 0.22,-128.14 0.67,-126.06 236.47 80
6 12/03/2021 18:14:54 -0.21,-128.12 0.32,-130.63 284.78 80
7 12/04/2021 17:51:34 -0.21,-128.09 -0.74,-125.62 281.00 80
8 12/06/2021 06:13:13 0.20,-128.02 -0.31,-130.21 250.50 80
9 12/07/2021 05:49:54 0.20,-127.98 0.81,-125.22 314.87 80
10 12/08/2021 18:11:25 -0.18,-127.96 0.24,-129.77 207.31 80
11 12/09/2021 17:48:05 -0.19,-127.92 -0.88,-124.78 358.14 80
